EW2690 Weather Reports


time (UTC)temp
F
wind
direction
speed
knots
gust
knots
rain 1hr
in
rain 24hr
in
rain mn
in
humidity
%
barometer
mb
20260504000409 59 360 5.2 12.2 0.00 0.00 0.00 46 1021.1
20260504000326 59 360 5.2 12.2 0.00 0.00 0.00 46 1021.1
20260504000042 59 215 5.2 15.6 0.00 0.00 0.00 46 1021.2
20260503233047 60 259 6.1 14.8 0.00 0.00 0.00 43 1021.2
20260503230343 60 248 7.8 11.3 0.00 0.00 0.00 43 1021.3
20260503230105 61 229 6.1 13.9 0.00 0.00 0.00 44 1021.3
20260503223021 62 203 7.0 15.6 0.00 0.00 0.00 42 1021.4
20260503220322 62 227 4.3 13.0 0.00 0.00 0.00 42 1021.5
20260503220014 62 244 3.5 14.8 0.00 0.00 0.00 42 1021.5
20260503213038 61 263 6.1 15.6 0.00 0.00 0.00 44 1021.5
20260503210311 61 289 8.7 15.6 0.00 0.00 0.00 42 1021.4
20260503210036 62 254 5.2 13.0 0.00 0.00 0.00 43 1021.3
20260503203033 62 272 6.1 19.1 0.00 0.00 0.00 44 1021.6
20260503200324 62 290 7.0 18.2 0.00 0.00 0.00 45 1022.0
20260503200047 62 273 5.2 18.2 0.00 0.00 0.00 45 1022.1
20260503193042 62 234 10.4 20.9 0.00 0.00 0.00 41 1022.5
20260503190316 61 333 9.6 17.4 0.00 0.00 0.00 41 1023.0
20260503190056 61 302 7.0 17.4 0.00 0.00 0.00 40 1023.0
20260503183031 61 239 9.6 20.0 0.00 0.00 0.00 42 1023.4
20260503180334 61 266 11.3 20.9 0.00 0.00 0.00 43 1023.6
20260503180024 61 320 7.0 14.8 0.00 0.00 0.00 43 1023.7
20260503170317 59 242 7.8 19.1 0.00 0.00 0.00 43 1024.1
20260503160109 57 284 6.1 19.1 0.00 0.00 0.00 45 1024.8
20260503150316 55 250 8.7 14.8 0.00 0.00 0.00 46 1025.2
20260503130312 47 257 4.3 9.6 0.00 0.00 0.00 55 1026.0
20260503120125 43 252 3.5 7.0 0.00 0.00 0.00 70 1026.0
20260503110355 38 247 2.6 7.0 0.00 0.00 0.00 81 1025.5
20260503100106 37 242 1.7 4.3 0.00 0.01 0.00 82 1025.3
20260503090311 37 228 1.7 6.1 0.00 0.01 0.00 83 1025.4
20260503080406 36 194 2.6 4.3 0.00 0.02 0.00 83 1025.5
20260503070318 37 192 2.6 4.3 0.00 0.03 0.00 83 1025.5
20260503060314 36 220 1.7 3.5 0.00 0.03 0.00 85 1025.9
20260503053058 36 217 1.7 5.2 0.00 0.03 0.00 87 1026.0
20260503050312 35 186 0.9 3.5 0.00 0.03 0.00 89 1026.2
20260503050027 35 186 0.9 3.5 0.00 0.03 0.00 90 1026.2
20260503043025 35 253 0.0 1.7 0.00 0.03 0.00 89 1026.2
20260503040424 37 254 0.9 1.7 0.00 0.03 0.00 87 1026.4
20260503040035 37 254 0.9 1.7 0.00 0.03 0.00 87 1026.4
20260503033014 39 254 0.9 1.7 0.00 0.03 0.03 84 1026.5
20260503030403 39 254 0.9 1.7 0.00 0.03 0.03 84 1026.6
20260503030014 40 254 0.9 1.7 0.00 0.03 0.03 84 1026.6
20260503023013 40 292 0.0 0.9 0.00 0.03 0.03 84 1027.0
20260503020323 40 294 0.9 1.7 0.00 0.03 0.03 83 1027.0
20260503020107 40 294 0.0 1.7 0.00 0.03 0.03 83 1027.0
20260503013027 40 294 0.0 0.9 0.00 0.03 0.03 82 1027.0
20260503010327 41 294 0.9 0.9 0.00 0.03 0.03 81 1026.9
20260503010023 41 294 0.9 1.7 0.00 0.03 0.03 81 1026.9
20260503003025 42 294 0.0 1.7 0.00 0.03 0.03 74 1026.9